Location: Coupvray
(48.8929°N, 2.7967°E)
Time: 21:31:13
(UTC+00:00)

Cosmos 1241 Rocket - Pass Details

Date: 06 November 2020
Orbit: 929 x 1018 km, 65.8° (Epoch: 30 November)

Event Time Altitude Azimuth Distance (km) Brightness Sun altitude
Rises 17:38:33 0° 284° (WNW) 3,689 8.9 -13.2°
Reaches altitude 10° 17:41:56 10° 301° (WNW) 2,758 7.6 -13.7°
Maximum altitude 17:46:30 20° 346° (NNW) 2,156 6.4 -14.5°
Drops below altitude 10° 17:51:09 10° 32° (NNE) 2,798 6.5 -15.2°
Enters shadow 17:51:47 - 36° (NE) 2,960 6.6 -15.3°
